QPF
0.00 0.00 0.00 0.00 0.00 0.00 0.00 0.00 0.00 0.00 0.00 0.00 0.00 0.00 0.00 0.00 0.00 0.00 0.00 0.00 0.00 0.00 0.00 0.00 0.00 0.00 0.00 0.00 0.00 0.00 0.00 0.00 0.00 0.00 0.00 0.00 0.00 0.00 0.00 0.00 0.00 0.00 0.00
0.00 0.00 0.00 0.00 0.00 0.00 0.00 0.00 0.00 0.00 0.00 0.00 0.00 0.00 0.00 0.00 0.00 0.00 0.00 0.00 0.00 0.00 0.00 0.00 0.00 0.00 0.00 0.00 0.00 0.00 0.00 0.00 0.00 0.00 0.00 0.00 0.00 0.00 0.00 0.00 0.00 0.00 0.00
0.00 0.00 0.00 0.00 0.00 0.00 0.00 0.00 0.00 0.00 0.00 0.00 0.00 0.00 0.00 0.00 0.00 0.00 0.00 0.00 0.00 0.00 0.00 0.00 0.00 0.00 0.00 0.00 0.00 0.00 0.00 0.00 0.00 0.00 0.00 0.00 0.00 0.00 0.00 0.00 0.00 0.00 0.00
0.00 0.00 0.00 0.00 0.00 0.00 0.00 0.00 0.00 0.00 0.00 0.00 0.00 0.00 0.00 0.00 0.00 0.00 0.00 0.00 0.00 0.00 0.00 0.00 0.00 0.00 0.00 0.00 0.00 0.00 0.00 0.00 0.00 0.00 0.00 0.00 0.00 0.00 0.00 0.00 0.00 0.00 0.00
0.00 0.00 0.00 0.00 0.00 0.00 0.00 0.00 0.00 0.00 0.00 0.00 0.00 0.00 0.00 0.00 0.00 0.00 0.00 0.00 0.00 0.00 0.00 0.00 0.00 0.00 0.00 0.00 0.00 0.00 0.00 0.00 0.00 0.00 0.00 0.00 0.00 0.00 0.00 0.00 0.00 0.00 0.00
0.00 0.00 0.00 0.00 0.00 0.00 0.00 0.00 0.00 0.00 0.00 0.00 0.00 0.00 0.00 0.00 0.00 0.00 0.00 0.00 0.00 0.00 0.00 0.00 0.00 0.00 0.00 0.00 0.00 0.00 0.00 0.00 0.00 0.00 0.00 0.00 0.00 0.00 0.00 0.00 0.00 0.00 0.00
0.00 0.00 0.00 0.00 0.00 0.00 0.00 0.00 0.00 0.00 0.00 0.00 0.00 0.00 0.00 0.00 0.00 0.00 0.00 0.00 0.00 0.00 0.00 0.00 0.00 0.00 0.00 0.00 0.00 0.00 0.00 0.00 0.00 0.00 0.00 0.00 0.00 0.00 0.00 0.00 0.00 0.00 0.00
0.00 0.00 0.00 0.00 0.00 0.00 0.00 0.00 0.00 0.00 0.00 0.00 0.00 0.00 0.00 0.00 0.00 0.00 0.00 0.00 0.00 0.00 0.00 0.00 0.00 0.00 0.00 0.00 0.00 0.00 0.00 0.00 0.00 0.00 0.00 0.00 0.00 0.00 0.00 0.00 0.00 0.00 0.00
0.00 0.00 0.00 0.00 0.00 0.00 0.00 0.00 0.00 0.00 0.00 0.00 0.00 0.00 0.00 0.00 0.00 0.00 0.00 0.00 0.00 0.00 0.00 0.00 0.00 0.00 0.00 0.00 0.00 0.00 0.00 0.00 0.00 0.00 0.00 0.00 0.00 0.00 0.00 0.00 0.00 0.00 0.00
0.00 0.00 0.00 0.00 0.00 0.00 0.00 0.00 0.00 0.00 0.00 0.00 0.00 0.00 0.00 0.00 0.00 0.00 0.00 0.00 0.00 0.00 0.00 0.00 0.00 0.00 0.00 0.00 0.00 0.00 0.00 0.00 0.00 0.00 0.00 0.00 0.00 0.00 0.00 0.00 0.00 0.01 0.01
0.00 0.00 0.00 0.00 0.00 0.00 0.00 0.00 0.00 0.00 0.00 0.00 0.00 0.00 0.00 0.00 0.00 0.00 0.00 0.00 0.00 0.00 0.00 0.00 0.00 0.00 0.00 0.00 0.00 0.00 0.00 0.00 0.00 0.00 0.00 0.00 0.00 0.00 0.00 0.00 0.00 0.00 0.00
0.00 0.00 0.00 0.00 0.00 0.00 0.00 0.00 0.00 0.00 0.00 0.00 0.00 0.00 0.00 0.00 0.00 0.00 0.00 0.00 0.00 0.00 0.00 0.00 0.00 0.00 0.00 0.00 0.00 0.00 0.00 0.00 0.00 0.00 0.00 0.00 0.00 0.00 0.00 0.00 0.00 0.00 0.00
0.00 0.00 0.00 0.00 0.00 0.00 0.00 0.00 0.00 0.00 0.00 0.00 0.00 0.00 0.00 0.00 0.00 0.00 0.00 0.00 0.00 0.00 0.00 0.00 0.00 0.00 0.00 0.00 0.00 0.00 0.00 0.00 0.00 0.00 0.00 0.00 0.00 0.00 0.00 0.00 0.00 0.00 0.00
0.00 0.00 0.00 0.00 0.00 0.00 0.00 0.00 0.00 0.00 0.00 0.00 0.00 0.00 0.00 0.00 0.00 0.00 0.00 0.00 0.00 0.00 0.00 0.00 0.00 0.00 0.00 0.00 0.00 0.00 0.00 0.00 0.00 0.00 0.00 0.00 0.00 0.00 0.00 0.00 0.00 0.00 0.00
0.01 0.00 0.00 0.00 0.00 0.00 0.00 0.00 0.00 0.00 0.00 0.00 0.00 0.00 0.00 0.00 0.00 0.00 0.00 0.00 0.00 0.00 0.00 0.00 0.00 0.00 0.00 0.00 0.00 0.00 0.00 0.00 0.00 0.00 0.00 0.00 0.00 0.00 0.00 0.00 0.00 0.00 0.00
0.08 0.08 0.06 0.06 0.05 0.04 0.02 0.01 0.00 0.00 0.00 0.00 0.00 0.00 0.00 0.00 0.00 0.00 0.00 0.00 0.00 0.00 0.00 0.00 0.00 0.00 0.00 0.00 0.00 0.00 0.00 0.00 0.00 0.00 0.00 0.00 0.00 0.00 0.00 0.00 0.00 0.00 0.01
0.23 0.25 0.18 0.11 0.08 0.05 0.02 0.00 0.00 0.00 0.00 0.00 0.00 0.00 0.00 0.00 0.00 0.00 0.00 0.00 0.00 0.00 0.00 0.00 0.00 0.00 0.00 0.00 0.00 0.00 0.00 0.00 0.00 0.00 0.00 0.00 0.00 0.01 0.00 0.00 0.00 0.01 0.01
0.09 0.09 0.09 0.08 0.03 0.00 0.00 0.00 0.00 0.00 0.00 0.00 0.00 0.00 0.00 0.00 0.00 0.00 0.00 0.00 0.00 0.00 0.00 0.00 0.00 0.00 0.00 0.00 0.00 0.00 0.00 0.00 0.00 0.00 0.00 0.00 0.00 0.00 0.00 0.01 0.01 0.00 0.01
0.08 0.05 0.03 0.01 0.00 0.00 0.00 0.00 0.00 0.00 0.00 0.00 0.00 0.00 0.00 0.00 0.00 0.00 0.00 0.00 0.00 0.00 0.00 0.00 0.00 0.00 0.00 0.00 0.00 0.00 0.00 0.00 0.00 0.00 0.00 0.00 0.00 0.00 0.00 0.00 0.00 0.00 0.00
0.02 0.00 0.00 0.00 0.00 0.00 0.00 0.00 0.00 0.00 0.00 0.00 0.00 0.00 0.00 0.00 0.00 0.00 0.00 0.00 0.00 0.00 0.00 0.00 0.00 0.00 0.00 0.00 0.00 0.00 0.00 0.00 0.00 0.00 0.00 0.00 0.00 0.00 0.00 0.00 0.00 0.00 0.00
0.00 0.00 0.00 0.00 0.00 0.00 0.00 0.00 0.00 0.00 0.00 0.00 0.00 0.00 0.00 0.00 0.00 0.00 0.00 0.00 0.00 0.00 0.00 0.00 0.00 0.00 0.00 0.00 0.00 0.00 0.00 0.00 0.00 0.00 0.00 0.00 0.00 0.00 0.00 0.00 0.00 0.00 0.00
0.00 0.00 0.00 0.00 0.00 0.00 0.00 0.00 0.00 0.00 0.00 0.00 0.00 0.00 0.00 0.00 0.00 0.00 0.00 0.00 0.00 0.00 0.00 0.00 0.00 0.00 0.00 0.00 0.00 0.00 0.00 0.00 0.00 0.00 0.00 0.00 0.00 0.00 0.00 0.00 0.00 0.00 0.00
0.00 0.00 0.00 0.00 0.00 0.00 0.00 0.00 0.00 0.00 0.00 0.00 0.00 0.00 0.00 0.00 0.00 0.00 0.00 0.00 0.00 0.00 0.00 0.00 0.00 0.00 0.00 0.00 0.00 0.00 0.00 0.00 0.00 0.00 0.00 0.00 0.00 0.00 0.00 0.00 0.00 0.00 0.00
0.00 0.00 0.00 0.00 0.00 0.00 0.00 0.00 0.00 0.00 0.00 0.00 0.00 0.00 0.00 0.00 0.00 0.00 0.00 0.00 0.00 0.00 0.00 0.00 0.00 0.00 0.00 0.00 0.00 0.00 0.00 0.00 0.00 0.00 0.00 0.00 0.00 0.00 0.00 0.00 0.00 0.00 0.00
0.00 0.00 0.00 0.00 0.00 0.00 0.00 0.00 0.00 0.00 0.00 0.00 0.00 0.00 0.00 0.00 0.00 0.00 0.00 0.00 0.00 0.00 0.00 0.00 0.00 0.00 0.00 0.00 0.00 0.00 0.00 0.00 0.00 0.00 0.00 0.00 0.00 0.00 0.00 0.00 0.00 0.00 0.00
0.00 0.00 0.00 0.00 0.00 0.00 0.00 0.00 0.00 0.00 0.00 0.00 0.00 0.00 0.00 0.00 0.00 0.00 0.00 0.00 0.00 0.00 0.00 0.00 0.00 0.00 0.00 0.00 0.00 0.00 0.00 0.01 0.01 0.01 0.00 0.00 0.00 0.00 0.01 0.00 0.00 0.00 0.00
MSLP
1018.99 1019.25 1019.64 1019.92 1020.21 1020.63 1020.87 1021.24 1021.42 1021.68 1021.89 1022.14 1022.36 1022.45 1022.73 1022.93 1023.01 1023.11 1023.14 1023.37 1023.38 1023.37 1023.36 1023.36 1023.46 1023.50 1023.49 1023.45 1023.42 1023.41 1023.34 1023.25 1023.16 1022.98 1022.83 1022.61 1022.38 1022.10 1021.84 1021.54 1021.24 1021.00 1020.72
1018.85 1019.24 1019.57 1019.85 1020.15 1020.52 1020.87 1021.18 1021.58 1021.82 1022.13 1022.37 1022.67 1022.87 1023.08 1023.31 1023.44 1023.57 1023.70 1023.82 1023.90 1023.95 1023.91 1023.94 1023.96 1023.95 1023.81 1023.69 1023.68 1023.65 1023.55 1023.42 1023.34 1023.19 1023.01 1022.79 1022.56 1022.33 1022.06 1021.76 1021.37 1020.96 1020.66
1018.82 1019.12 1019.53 1019.85 1020.11 1020.52 1020.94 1021.31 1021.81 1022.28 1022.50 1022.81 1023.03 1023.25 1023.43 1023.62 1023.76 1023.99 1024.16 1024.33 1024.46 1024.52 1024.45 1024.50 1024.55 1024.42 1024.25 1024.07 1023.96 1023.84 1023.73 1023.64 1023.53 1023.38 1023.19 1022.95 1022.64 1022.37 1022.11 1021.85 1021.50 1021.05 1020.72
1018.77 1019.15 1019.38 1019.84 1020.30 1020.57 1020.92 1021.27 1021.76 1022.35 1022.75 1022.97 1023.23 1023.51 1023.70 1023.92 1024.14 1024.29 1024.51 1024.68 1024.88 1025.01 1025.12 1025.12 1025.03 1024.91 1024.69 1024.48 1024.30 1024.07 1023.86 1023.75 1023.63 1023.45 1023.25 1023.01 1022.73 1022.46 1022.15 1021.84 1021.43 1020.96 1020.59
1018.53 1018.96 1019.39 1019.82 1020.25 1020.55 1020.89 1021.19 1021.88 1022.29 1022.95 1023.35 1023.51 1023.76 1024.03 1024.16 1024.38 1024.64 1024.83 1025.08 1025.26 1025.28 1025.40 1025.58 1025.51 1025.39 1025.20 1024.98 1024.70 1024.39 1024.06 1023.85 1023.73 1023.54 1023.29 1023.06 1022.77 1022.43 1022.10 1021.74 1021.31 1020.81 1020.38
1018.48 1018.81 1019.47 1019.77 1020.12 1020.63 1021.00 1021.40 1021.88 1022.57 1023.08 1023.51 1023.84 1024.16 1024.42 1024.68 1024.78 1024.94 1025.18 1025.38 1025.62 1025.72 1025.73 1025.78 1025.71 1025.73 1025.69 1025.42 1025.11 1024.70 1024.35 1023.99 1023.76 1023.49 1023.26 1022.97 1022.67 1022.32 1021.96 1021.54 1021.04 1020.56 1020.12
1018.57 1018.76 1019.26 1019.81 1019.99 1020.67 1021.19 1021.54 1022.18 1022.66 1023.45 1023.89 1023.95 1024.54 1024.82 1024.97 1025.09 1025.31 1025.44 1025.60 1025.80 1025.91 1025.94 1025.95 1025.93 1025.91 1025.83 1025.72 1025.45 1025.10 1024.76 1024.32 1023.97 1023.56 1023.17 1022.82 1022.48 1022.14 1021.68 1021.16 1020.66 1020.19 1019.80
1018.70 1018.84 1019.17 1019.67 1019.91 1020.37 1021.17 1021.74 1022.05 1022.86 1023.50 1023.94 1023.92 1024.12 1024.65 1025.06 1025.13 1025.36 1025.56 1025.70 1025.92 1026.00 1026.02 1026.10 1026.07 1026.05 1026.00 1025.90 1025.74 1025.24 1024.91 1024.64 1024.14 1023.62 1023.12 1022.62 1022.17 1021.74 1021.26 1020.68 1020.12 1019.65 1019.50
1018.72 1018.95 1019.33 1019.62 1020.14 1020.32 1020.85 1021.50 1022.04 1022.51 1023.12 1024.05 1024.18 1024.09 1024.65 1024.35 1024.92 1025.36 1025.60 1025.84 1026.00 1026.09 1026.18 1026.13 1026.12 1026.07 1026.02 1026.00 1025.87 1025.49 1025.14 1024.88 1024.37 1023.79 1023.23 1022.72 1022.21 1021.68 1021.10 1020.43 1019.71 1019.27 1019.03
1018.76 1019.08 1019.65 1019.89 1020.23 1020.61 1020.99 1021.47 1021.96 1022.42 1022.76 1023.73 1024.39 1024.50 1024.59 1024.44 1024.69 1025.15 1025.52 1025.90 1026.12 1026.10 1026.11 1026.06 1026.09 1026.08 1026.01 1026.01 1026.06 1025.84 1025.38 1025.02 1024.44 1023.93 1023.32 1022.66 1022.09 1021.51 1020.91 1020.25 1019.56 1018.93 1018.40
1018.82 1019.22 1019.88 1020.20 1020.60 1021.06 1021.27 1021.58 1022.23 1022.61 1022.83 1023.35 1024.08 1024.68 1024.81 1024.81 1024.94 1024.99 1025.24 1025.77 1025.94 1025.96 1025.98 1025.96 1026.07 1026.07 1026.10 1026.18 1026.04 1025.87 1025.58 1025.12 1024.53 1023.92 1023.19 1022.51 1021.90 1021.29 1020.72 1020.13 1019.52 1018.97 1018.39
1018.82 1019.22 1019.92 1020.39 1020.82 1021.42 1021.80 1022.17 1022.51 1022.82 1023.12 1023.62 1024.08 1024.68 1024.85 1024.99 1025.40 1025.59 1025.77 1026.17 1026.24 1025.84 1025.84 1026.01 1025.93 1026.16 1026.28 1026.15 1026.05 1025.89 1025.56 1025.13 1024.48 1023.79 1023.10 1022.35 1021.72 1021.32 1020.88 1020.35 1019.64 1018.94 1018.34
1018.94 1019.62 1020.03 1020.70 1021.30 1021.82 1022.27 1022.67 1022.91 1023.53 1023.60 1024.06 1024.35 1024.88 1025.02 1025.28 1025.71 1026.06 1026.16 1026.54 1026.63 1026.22 1025.88 1025.90 1026.05 1026.30 1026.33 1026.25 1026.12 1025.78 1025.34 1025.04 1024.46 1023.72 1023.01 1022.31 1021.81 1021.35 1020.87 1020.27 1019.58 1018.85 1018.14
1019.40 1019.94 1020.45 1021.14 1021.83 1022.27 1022.89 1023.38 1023.97 1024.03 1024.73 1024.74 1024.70 1025.29 1025.75 1026.06 1026.08 1026.01 1026.54 1026.68 1026.84 1026.77 1026.35 1026.05 1026.14 1026.35 1026.22 1026.09 1025.90 1025.40 1025.04 1024.81 1024.29 1023.57 1022.91 1022.29 1021.74 1021.23 1020.61 1019.90 1019.18 1018.52 1017.88
1019.42 1020.30 1021.04 1021.77 1022.43 1023.01 1023.49 1024.18 1024.29 1024.87 1024.97 1025.24 1025.67 1025.71 1026.16 1026.57 1026.85 1026.75 1026.70 1026.90 1027.24 1026.77 1026.52 1026.57 1026.44 1026.42 1026.32 1025.89 1025.71 1025.47 1025.07 1024.64 1023.98 1023.42 1022.68 1022.06 1021.52 1020.86 1020.14 1019.43 1018.84 1018.35 1017.68
1018.60 1019.54 1021.46 1022.19 1023.17 1023.98 1024.31 1024.70 1024.88 1025.50 1025.06 1026.09 1026.47 1026.24 1026.47 1027.12 1027.26 1027.03 1027.10 1027.27 1027.52 1027.23 1027.11 1027.12 1026.70 1026.70 1026.42 1026.13 1025.81 1025.44 1025.13 1024.65 1023.89 1023.20 1022.66 1021.98 1021.26 1020.56 1019.89 1019.24 1018.55 1017.95 1017.37
1018.97 1019.47 1021.23 1022.49 1023.66 1024.25 1024.77 1024.65 1025.12 1025.86 1025.94 1026.57 1026.28 1026.50 1026.49 1027.52 1027.64 1027.55 1027.43 1027.52 1027.40 1027.42 1027.32 1026.92 1027.02 1026.65 1026.28 1026.14 1025.82 1025.40 1024.88 1024.23 1023.45 1023.15 1022.63 1021.83 1021.14 1020.42 1019.75 1019.03 1018.37 1017.85 1017.20
1019.39 1020.40 1021.44 1022.53 1023.59 1024.52 1024.98 1024.63 1025.73 1026.16 1026.24 1026.53 1026.87 1026.95 1027.32 1027.79 1027.80 1027.79 1027.50 1027.54 1027.44 1027.51 1027.25 1027.07 1026.60 1026.29 1026.26 1026.16 1025.64 1025.07 1024.53 1024.05 1023.56 1022.99 1022.25 1021.59 1020.95 1020.40 1019.81 1019.07 1018.47 1017.85 1017.20
1019.14 1020.73 1021.68 1022.44 1023.40 1024.43 1024.83 1025.53 1026.03 1025.76 1026.72 1027.27 1027.18 1027.00 1027.71 1027.88 1027.83 1027.73 1027.37 1027.50 1027.49 1027.31 1027.05 1026.87 1026.44 1026.59 1026.20 1025.54 1025.12 1024.62 1024.27 1023.85 1023.31 1022.64 1021.90 1021.31 1020.90 1020.27 1019.56 1018.96 1018.37 1017.72 1017.18
1019.61 1020.71 1021.23 1022.60 1023.99 1024.84 1025.31 1025.61 1026.11 1026.46 1027.24 1027.60 1027.41 1027.28 1027.94 1027.92 1027.61 1027.57 1027.48 1027.29 1027.28 1027.12 1026.98 1026.72 1026.46 1026.10 1025.91 1025.43 1025.21 1024.62 1024.04 1023.84 1023.04 1022.38 1021.88 1021.30 1020.75 1020.03 1019.37 1018.77 1018.32 1017.73 1016.94
1019.66 1020.86 1021.74 1023.00 1024.30 1024.85 1025.45 1026.04 1026.44 1026.70 1027.39 1027.57 1027.83 1027.88 1027.92 1027.76 1027.74 1027.51 1027.15 1027.07 1027.13 1027.25 1026.92 1026.92 1026.41 1026.00 1025.59 1025.52 1025.34 1025.11 1024.49 1023.69 1022.97 1022.23 1021.88 1021.18 1020.33 1019.68 1018.99 1018.52 1018.08 1017.40 1016.59
1020.92 1021.53 1022.73 1023.60 1024.08 1025.28 1025.71 1026.00 1026.44 1027.08 1027.38 1027.71 1028.05 1028.30 1028.06 1027.92 1027.79 1027.44 1027.20 1026.99 1027.32 1027.11 1027.02 1026.85 1026.25 1026.03 1025.86 1025.96 1025.67 1025.33 1024.75 1023.99 1022.93 1022.29 1021.93 1020.82 1020.23 1019.49 1018.83 1018.37 1017.90 1017.28 1016.51
1021.81 1022.29 1023.37 1023.89 1024.39 1025.37 1025.60 1026.00 1026.88 1027.52 1027.47 1028.34 1027.91 1028.21 1027.76 1027.89 1027.87 1027.07 1027.28 1027.24 1027.40 1027.27 1026.88 1026.77 1026.41 1026.33 1026.19 1025.99 1025.78 1025.24 1024.82 1024.21 1023.39 1022.52 1022.11 1020.83 1019.98 1019.25 1018.64 1018.09 1017.60 1017.06 1016.26
1022.58 1023.13 1024.14 1024.55 1024.66 1025.51 1025.68 1026.45 1027.51 1026.96 1028.15 1028.55 1027.85 1027.98 1027.66 1027.48 1027.17 1027.30 1027.15 1027.16 1027.16 1026.89 1026.88 1026.50 1026.54 1026.48 1026.23 1025.74 1025.42 1024.96 1024.56 1024.07 1023.23 1022.35 1021.99 1020.95 1020.02 1019.17 1018.44 1017.86 1017.33 1016.97 1016.51
1023.46 1024.41 1025.14 1025.71 1024.63 1025.79 1025.72 1026.75 1027.87 1026.48 1028.67 1027.76 1027.67 1027.68 1027.09 1027.66 1027.19 1027.12 1026.78 1026.94 1026.79 1026.62 1026.68 1026.72 1026.52 1026.31 1025.97 1025.69 1025.26 1024.85 1024.34 1023.92 1023.04 1022.22 1021.61 1021.31 1020.30 1019.38 1018.44 1017.56 1017.12 1016.86 1016.39
1024.64 1025.00 1025.63 1025.79 1025.57 1026.01 1026.37 1027.07 1026.79 1026.90 1028.04 1027.86 1027.65 1027.27 1027.77 1027.39 1027.12 1027.08 1026.84 1026.82 1026.61 1026.65 1026.87 1026.55 1026.24 1026.01 1025.92 1025.66 1025.19 1024.93 1024.66 1024.10 1023.48 1022.35 1021.77 1021.60 1020.45 1020.26 1018.83 1017.46 1017.10 1016.68 1016.22
Thickness
5673 5673 5671 5671 5670 5667 5666 5664 5662 5660 5658 5656 5654 5653 5649 5647 5645 5643 5641 5638 5636 5634 5633 5631 5629 5626 5625 5623 5621 5619 5618 5617 5616 5616 5615 5615 5614 5614 5614 5614 5615 5615 5615
5669 5667 5667 5666 5665 5663 5661 5659 5657 5655 5652 5650 5647 5645 5642 5640 5638 5635 5632 5629 5626 5624 5622 5620 5618 5616 5615 5614 5612 5610 5609 5608 5607 5605 5605 5604 5604 5603 5603 5603 5603 5604 5604
5662 5662 5661 5660 5660 5658 5655 5653 5650 5647 5645 5642 5640 5637 5635 5632 5629 5626 5622 5619 5617 5614 5612 5609 5607 5605 5604 5603 5602 5600 5599 5598 5596 5595 5594 5594 5594 5593 5592 5591 5591 5592 5592
5655 5655 5655 5654 5652 5651 5649 5647 5644 5640 5637 5635 5633 5629 5626 5623 5620 5617 5613 5610 5607 5604 5601 5598 5596 5594 5592 5591 5590 5590 5589 5587 5586 5584 5583 5582 5582 5581 5580 5579 5579 5579 5579
5651 5650 5648 5647 5645 5644 5643 5641 5636 5634 5630 5626 5624 5621 5618 5615 5611 5607 5604 5600 5597 5594 5591 5587 5585 5582 5580 5578 5578 5578 5578 5577 5575 5573 5571 5570 5568 5567 5567 5566 5565 5565 5565
5642 5643 5640 5640 5639 5637 5635 5633 5630 5625 5622 5619 5616 5612 5608 5605 5601 5597 5593 5589 5585 5582 5579 5576 5574 5571 5568 5566 5566 5565 5565 5564 5563 5561 5559 5558 5556 5555 5553 5552 5551 5550 5549
5632 5634 5634 5632 5633 5629 5627 5625 5621 5618 5612 5608 5609 5603 5598 5595 5591 5587 5583 5579 5575 5571 5568 5565 5562 5560 5558 5556 5554 5553 5551 5550 5549 5548 5546 5545 5543 5540 5538 5537 5535 5534 5533
5621 5624 5626 5625 5625 5624 5619 5616 5615 5608 5604 5600 5602 5600 5597 5591 5584 5579 5574 5569 5564 5560 5557 5554 5551 5548 5546 5544 5542 5540 5537 5534 5533 5532 5531 5530 5528 5525 5523 5522 5520 5519 5517
5610 5614 5615 5616 5614 5615 5613 5609 5606 5603 5599 5590 5588 5593 5586 5594 5579 5569 5564 5558 5553 5548 5545 5543 5541 5539 5535 5531 5528 5525 5523 5520 5517 5516 5515 5512 5509 5507 5505 5504 5504 5502 5499
5599 5603 5602 5604 5604 5604 5603 5599 5596 5595 5592 5585 5578 5576 5573 5574 5575 5566 5555 5547 5541 5539 5535 5532 5530 5527 5523 5519 5513 5509 5507 5505 5502 5499 5497 5495 5492 5490 5487 5485 5483 5481 5478
5589 5591 5589 5591 5591 5590 5591 5590 5585 5582 5581 5577 5571 5564 5562 5559 5554 5554 5551 5541 5534 5528 5524 5520 5516 5512 5509 5503 5499 5494 5489 5487 5484 5481 5480 5478 5474 5470 5466 5463 5460 5455 5452
5579 5580 5578 5579 5580 5577 5576 5576 5574 5571 5568 5565 5561 5554 5551 5549 5542 5538 5535 5526 5521 5519 5513 5507 5504 5498 5493 5488 5483 5478 5472 5468 5466 5465 5462 5459 5455 5449 5443 5437 5433 5429 5423
5568 5567 5569 5569 5567 5565 5563 5562 5561 5556 5555 5551 5549 5541 5538 5534 5529 5522 5520 5513 5509 5506 5503 5496 5489 5483 5477 5472 5466 5461 5458 5452 5449 5446 5442 5438 5432 5425 5418 5411 5404 5397 5389
5556 5557 5556 5555 5552 5550 5548 5546 5541 5541 5535 5534 5533 5528 5523 5518 5516 5514 5507 5504 5499 5492 5490 5485 5476 5468 5463 5457 5451 5447 5443 5436 5430 5426 5420 5414 5405 5397 5388 5380 5371 5362 5354
5548 5544 5543 5541 5539 5537 5532 5528 5529 5523 5519 5517 5516 5516 5510 5504 5499 5498 5495 5490 5482 5484 5480 5470 5463 5454 5447 5443 5435 5428 5422 5417 5410 5403 5398 5388 5377 5368 5358 5349 5341 5332 5327
5548 5542 5530 5528 5524 5519 5515 5513 5513 5510 5512 5504 5500 5502 5498 5489 5485 5485 5481 5475 5466 5465 5459 5450 5444 5435 5428 5422 5414 5407 5400 5394 5388 5379 5370 5360 5350 5338 5328 5319 5313 5309 5305
5531 5530 5520 5518 5512 5507 5505 5508 5504 5497 5498 5490 5494 5490 5489 5475 5472 5470 5466 5459 5455 5449 5442 5437 5425 5419 5413 5403 5395 5387 5381 5374 5366 5350 5339 5330 5322 5313 5305 5297 5293 5288 5286
5522 5516 5512 5508 5503 5497 5493 5499 5491 5488 5486 5483 5478 5476 5472 5464 5460 5455 5453 5447 5439 5432 5429 5421 5415 5407 5396 5386 5380 5372 5360 5348 5334 5322 5313 5304 5297 5290 5285 5281 5277 5274 5273
5521 5512 5507 5503 5500 5491 5489 5481 5478 5484 5473 5465 5467 5468 5457 5452 5448 5443 5441 5432 5425 5419 5414 5407 5401 5389 5382 5375 5365 5351 5337 5323 5310 5299 5291 5284 5279 5275 5273 5269 5267 5265 5263
5513 5509 5508 5496 5484 5477 5475 5474 5470 5467 5460 5455 5457 5455 5444 5439 5437 5431 5425 5420 5413 5406 5398 5392 5386 5377 5366 5355 5342 5332 5319 5300 5296 5289 5277 5269 5267 5264 5263 5261 5259 5256 5253
5506 5499 5493 5487 5475 5471 5468 5463 5461 5458 5449 5447 5443 5440 5433 5430 5424 5418 5415 5408 5401 5391 5386 5376 5369 5359 5349 5334 5318 5303 5294 5289 5280 5278 5267 5260 5261 5257 5256 5254 5251 5247 5246
5488 5486 5480 5473 5471 5460 5457 5455 5452 5445 5443 5438 5431 5424 5421 5417 5411 5407 5401 5393 5383 5380 5371 5360 5351 5341 5325 5310 5294 5285 5278 5273 5274 5268 5260 5260 5256 5254 5254 5250 5246 5242 5240
5479 5475 5468 5465 5461 5452 5450 5446 5439 5433 5433 5420 5422 5412 5411 5404 5399 5399 5385 5377 5368 5360 5354 5343 5332 5317 5303 5290 5282 5273 5266 5260 5260 5262 5256 5258 5256 5253 5252 5250 5246 5241 5239
5464 5463 5457 5454 5451 5444 5443 5435 5425 5430 5415 5406 5410 5403 5400 5398 5393 5378 5372 5364 5354 5346 5335 5324 5312 5298 5286 5278 5271 5265 5260 5255 5253 5256 5252 5253 5253 5250 5249 5248 5245 5240 5236
5449 5444 5437 5432 5448 5434 5435 5426 5411 5426 5398 5404 5400 5395 5394 5378 5376 5367 5364 5350 5342 5331 5317 5305 5294 5283 5274 5267 5263 5258 5254 5251 5252 5251 5251 5246 5249 5246 5246 5247 5243 5238 5235
5436 5435 5431 5429 5431 5426 5420 5412 5414 5408 5393 5389 5388 5386 5372 5369 5363 5355 5348 5338 5327 5315 5301 5291 5282 5273 5265 5258 5254 5250 5247 5245 5243 5247 5246 5240 5243 5239 5243 5246 5242 5237 5234